{"data":{"norad_id":50476,"epoch":"2026-09-19T22:29:17.431584Z","epoch_age_seconds":74489,"freshness":"FRESH","line1":"1 50476U 21132H   26262.93700731  .00000066  00000+0  13357-3 0  9992","line2":"2 50476  87.9162 316.6310 0002090 100.1130 260.0238 13.18687424234121","mean_motion":13.18687424,"eccentricity":0.000209,"inclination_deg":87.9162,"raan_deg":316.631,"arg_perigee_deg":100.113,"mean_anomaly_deg":260.0238,"bstar":0.00013357,"rev_number":23412,"period_min":109.1994944209,"perigee_km":1188.1559928824,"apogee_km":1191.3193644981,"semimajor_km":7567.8746786902,"source":"CELESTRAK","updated_at":"2026-09-20T09:00:44.678092Z"}}